STARLINK-35780, 66974

Orbit data source: Space-Track

STARLINK-35780, 66974 is a payload satellite owned by SpaceX/Seattle (US) in LEO that was launched on Mon, 08 Dec 2025 UTC via an FALCON 9 launch vehicle from the Air Force Eastern Test Range (AFETR). Payload-class satellites include a variety of spacecraft equipped with specific instruments for various scientific and technological missions. These include communications satellites like Starlink; space stations such as the ISS; scientific satellites like the Hubble; Earth observation satellites from companies like Planet Labs, Umbra, and HawkEye 360; GPS; miniature CubeSats for education and research; and military/defense satellites.

Loading next visibility...
Identifier
66974, 2025-288R
Orbit
LEO
Country
Flag of USUS
Related business
Manufacturer
SpaceX/Seattle
Mission
Operational Commercial Communications
Bus & Motor
STARLINK V2MO, Unknown motor
Mass
575 kg wet, ~530 kg dry
Launch date (UTC)
2025-12-08 (5 months ago)
Launch vehicle
FALCON 9
Launch site
Air Force Eastern Test Range (AFETR)
Object type
Payload
Rocket body
Debris
Shape & HBR
Box + 2 Pan, 17.7 m
Radar Cross Section
36.964 m²

Expand to show TLE details & history
Last TLE update: 9 hours ago

TLE from 9 hours ago
0 STARLINK-35780
1 66974U 25288R   26130.09677058 -.00014703  00000-0 -52618-3 0  9993
2 66974  43.0010  36.2392 0001518 264.1921  95.8757 15.27556883 24688
Epoch: 2026-05-10T02:19Z
TLE epoch observation values (Epoch: 2026-05-10T02:19:20.978Z)
Latitude
-0.00004°
Longitude
133.49699°
Altitude
483.001 km
Speed
7.626 km/s
True Right ascension
02h 24m 57s
True Declination
0° 00' 00"
Sunlit
Object was in daylight at epoch
Visualization orbit readout
Latitude
Unknown
Longitude
Unknown
Altitude
Unknown
Speed
Unknown
Apparent Right ascension
Unknown
Apparent Declination
Unknown
Sunlit
N/A
Visualization observer readout
Local Sidereal Time
19:48:27
Azimuth
Unknown
Elevation
Unknown
Doppler factor
Unknown
Orbital elements
Apogee altitude
486.105 km
Perigee altitude
484.021 km
Semi-major axis
6,863.2 km
Eccentricity
0.00015
Inclination
43.001°
RAAN
36.2392°
Arg. of periapsis
264.1921°
True anomaly
95.893°
Mean anomaly
95.8757°
Eccentric anomaly
95.88435°
Mean motion
3.81727 °/min
Orbital period
94.31 mins
BSTAR
-0.00052618
Loading maneuver chart data...
Computing Atmospheric mass density...
Loading historical data...
Loading historical data...
Loading historical data...
Loading historical data...
Loading historical data...
Loading historical data...
Loading historical data...

Documentation

Showing up to 5 results
|